EWG19K EDDP-EDDL

Flight info

Callsign EWG19K
Flight time 0h 49m
Altitude 24000
Route ORTAG5N ORTAG Q230 WRB/N0359F200 T854 DOMUX DOMUX1A
Aircraft A319/M-SDE3FGHIRWY/LB1

Departure

Time 2026-05-04 19:04
Airport Leipzig/Halle Airport (EDDP)

Arrival

Time 2026-05-04 19:53
Airport Düsseldorf Airport (EDDL)
Time Latitude Longitude Altitude Speed Heading
2026-05-04 18:44 51.41886 12.22186 436 ft 0 kts 16°
2026-05-04 18:52 51.41883 12.22185 436 ft 2 kts 16°
2026-05-04 18:52 51.41865 12.22177 422 ft 3 kts 14°
2026-05-04 18:52 51.41846 12.22169 426 ft 3 kts 16°
2026-05-04 18:53 51.41827 12.22159 424 ft 3 kts 21°
2026-05-04 18:53 51.41809 12.22146 424 ft 3 kts 36°
2026-05-04 18:53 51.41796 12.22125 421 ft 3 kts 69°
2026-05-04 18:53 51.41793 12.22105 425 ft 1 kts 105°
2026-05-04 18:54 51.41793 12.22103 425 ft 0 kts 105°
2026-05-04 18:57 51.41791 12.22118 430 ft 2 kts 105°
2026-05-04 18:57 51.41781 12.22174 436 ft 10 kts 105°
2026-05-04 18:57 51.41760 12.22299 428 ft 14 kts 105°
2026-05-04 18:57 51.41726 12.22497 441 ft 20 kts 105°
2026-05-04 18:58 51.41687 12.22724 450 ft 22 kts 105°
2026-05-04 18:58 51.41645 12.22970 457 ft 24 kts 105°
2026-05-04 18:58 51.41600 12.23245 465 ft 26 kts 98°
2026-05-04 18:58 51.41610 12.23550 468 ft 28 kts 86°
2026-05-04 18:59 51.41625 12.23867 473 ft 30 kts 86°
2026-05-04 18:59 51.41641 12.24206 479 ft 31 kts 85°
2026-05-04 18:59 51.41657 12.24556 478 ft 30 kts 85°
2026-05-04 18:59 51.41729 12.24801 479 ft 27 kts 13°
2026-05-04 19:00 51.41907 12.24869 490 ft 25 kts 13°
2026-05-04 19:00 51.42092 12.24940 491 ft 29 kts 13°
2026-05-04 19:00 51.42305 12.25021 483 ft 35 kts 13°
2026-05-04 19:00 51.42547 12.25115 470 ft 33 kts 13°
2026-05-04 19:01 51.42794 12.25210 457 ft 40 kts 14°
2026-05-04 19:01 51.42980 12.25310 450 ft 22 kts 58°
2026-05-04 19:01 51.43000 12.25567 451 ft 25 kts 86°
2026-05-04 19:01 51.43053 12.25808 451 ft 23 kts
2026-05-04 19:02 51.43187 12.25684 451 ft 25 kts 297°
2026-05-04 19:02 51.43263 12.25450 450 ft 17 kts 318°
2026-05-04 19:02 51.43302 12.25362 451 ft 4 kts 264°
2026-05-04 19:02 51.43302 12.25361 451 ft 0 kts 264°
2026-05-04 19:03 51.43302 12.25360 451 ft 1 kts 264°
2026-05-04 19:03 51.43290 12.25108 449 ft 52 kts 266°
2026-05-04 19:03 51.43248 12.24211 436 ft 111 kts 265°
2026-05-04 19:03 51.43176 12.22686 427 ft 163 kts 265°
2026-05-04 19:04 51.43086 12.20812 914 ft 170 kts 265°
2026-05-04 19:04 51.42992 12.18904 1545 ft 173 kts 266°
2026-05-04 19:04 51.42893 12.16880 1941 ft 193 kts 266°
2026-05-04 19:04 51.42772 12.14628 2340 ft 213 kts 266°
2026-05-04 19:05 51.42654 12.12158 2751 ft 234 kts 266°
2026-05-04 19:05 51.42532 12.09421 3283 ft 257 kts 266°
2026-05-04 19:05 51.42399 12.06521 4211 ft 263 kts 265°
2026-05-04 19:05 51.42259 12.03582 5238 ft 266 kts 265°
2026-05-04 19:06 51.42116 12.00613 6291 ft 268 kts 264°
2026-05-04 19:06 51.41970 11.97632 7282 ft 270 kts 264°
2026-05-04 19:06 51.41823 11.94617 8230 ft 273 kts 263°
2026-05-04 19:06 51.41675 11.91567 9167 ft 276 kts 263°
2026-05-04 19:07 51.41523 11.88470 10065 ft 280 kts 263°
2026-05-04 19:07 51.41360 11.85236 10477 ft 302 kts 263°
2026-05-04 19:07 51.41181 11.81754 10740 ft 325 kts 263°
2026-05-04 19:07 51.40993 11.78073 11279 ft 336 kts 263°
2026-05-04 19:08 51.40801 11.74309 11997 ft 341 kts 263°
2026-05-04 19:08 51.40606 11.70497 12730 ft 346 kts 263°
2026-05-04 19:08 51.40409 11.66632 13455 ft 350 kts 264°
2026-05-04 19:08 51.40454 11.62704 14121 ft 357 kts 275°
2026-05-04 19:09 51.40958 11.58790 14782 ft 361 kts 282°
2026-05-04 19:09 51.41569 11.54872 15452 ft 365 kts 282°
2026-05-04 19:09 51.42180 11.50906 16100 ft 368 kts 281°
2026-05-04 19:09 51.42793 11.46902 16762 ft 371 kts 281°
2026-05-04 19:10 51.43398 11.42926 17424 ft 374 kts 281°
2026-05-04 19:10 51.44025 11.38810 18110 ft 377 kts 281°
2026-05-04 19:10 51.44648 11.34718 18710 ft 380 kts 281°
2026-05-04 19:10 51.45268 11.30649 19312 ft 382 kts 281°
2026-05-04 19:11 51.45899 11.26503 19932 ft 384 kts 281°
2026-05-04 19:11 51.46531 11.22331 20539 ft 386 kts 281°
2026-05-04 19:11 51.47163 11.18136 21146 ft 388 kts 281°
2026-05-04 19:11 51.47795 11.13913 21718 ft 390 kts 281°
2026-05-04 19:12 51.48428 11.09672 22288 ft 392 kts 281°
2026-05-04 19:12 51.49579 11.01058 23363 ft 396 kts 278°
2026-05-04 19:12 51.50072 10.96692 23828 ft 398 kts 278°
2026-05-04 19:13 51.50546 10.92304 24274 ft 400 kts 277°
2026-05-04 19:13 51.51018 10.87905 24726 ft 401 kts 277°
2026-05-04 19:13 51.51500 10.83482 25169 ft 403 kts 277°
2026-05-04 19:13 51.51994 10.79050 25618 ft 404 kts 278°
2026-05-04 19:14 51.52495 10.74603 26064 ft 406 kts 278°
2026-05-04 19:14 51.53001 10.70127 26512 ft 407 kts 278°
2026-05-04 19:14 51.53498 10.65707 26944 ft 408 kts 276°
2026-05-04 19:14 51.53726 10.61171 27391 ft 407 kts 267°
2026-05-04 19:15 51.53661 10.56623 27818 ft 408 kts 266°
2026-05-04 19:15 51.53589 10.52074 27963 ft 405 kts 266°
2026-05-04 19:15 51.53518 10.47572 27987 ft 400 kts 266°
2026-05-04 19:15 51.53445 10.43111 27989 ft 398 kts 266°
2026-05-04 19:16 51.53372 10.38663 27989 ft 398 kts 266°
2026-05-04 19:16 51.53301 10.34259 27986 ft 388 kts 266°
2026-05-04 19:16 51.53233 10.29999 27988 ft 377 kts 266°
2026-05-04 19:16 51.53162 10.25805 27989 ft 375 kts 266°
2026-05-04 19:17 51.53087 10.21631 27990 ft 374 kts 266°
2026-05-04 19:17 51.53010 10.17455 27991 ft 374 kts 266°
2026-05-04 19:17 51.52931 10.13289 28005 ft 374 kts 265°
2026-05-04 19:17 51.52852 10.09120 27990 ft 374 kts 266°
2026-05-04 19:18 51.52774 10.04946 27993 ft 373 kts 266°
2026-05-04 19:18 51.52694 10.00771 27991 ft 373 kts 265°
2026-05-04 19:18 51.52610 9.96601 27991 ft 374 kts 265°
2026-05-04 19:18 51.52522 9.92426 27991 ft 374 kts 265°
2026-05-04 19:19 51.52435 9.88312 27992 ft 373 kts 265°
2026-05-04 19:19 51.52344 9.84149 27986 ft 374 kts 265°
2026-05-04 19:19 51.52252 9.79979 27688 ft 373 kts 265°
2026-05-04 19:19 51.52164 9.75825 27370 ft 371 kts 265°
2026-05-04 19:20 51.52105 9.73028 27161 ft 371 kts 265°
2026-05-04 19:20 51.51988 9.67559 26749 ft 370 kts 265°
2026-05-04 19:20 51.51897 9.63439 26457 ft 369 kts 265°
2026-05-04 19:20 51.51832 9.60665 26253 ft 368 kts 265°
2026-05-04 19:21 51.51738 9.56565 25952 ft 367 kts 265°
2026-05-04 19:21 51.51641 9.52471 25658 ft 367 kts 265°
2026-05-04 19:21 51.51543 9.48387 25363 ft 366 kts 265°
2026-05-04 19:21 51.51442 9.44304 25070 ft 365 kts 265°
2026-05-04 19:22 51.51338 9.40235 24755 ft 364 kts 265°
2026-05-04 19:22 51.51232 9.36165 24455 ft 364 kts 265°
2026-05-04 19:22 51.51129 9.32154 24178 ft 363 kts 265°
2026-05-04 19:22 51.51025 9.28105 23893 ft 363 kts 265°
2026-05-04 19:23 51.50919 9.24054 23560 ft 362 kts 265°
2026-05-04 19:23 51.50814 9.20040 23204 ft 357 kts 265°
2026-05-04 19:23 51.50709 9.16101 22877 ft 350 kts 265°
2026-05-04 19:23 51.50606 9.12230 22554 ft 343 kts 265°
2026-05-04 19:24 51.50539 9.08430 22236 ft 337 kts 267°
2026-05-04 19:24 51.50561 9.04695 21921 ft 332 kts 269°
2026-05-04 19:24 51.50627 9.01000 21610 ft 330 kts 269°
2026-05-04 19:24 51.50706 8.97337 21300 ft 328 kts 269°
2026-05-04 19:25 51.50779 8.93682 20995 ft 327 kts 269°
2026-05-04 19:25 51.50842 8.90036 20691 ft 326 kts 269°
2026-05-04 19:25 51.50894 8.86406 20390 ft 324 kts 269°
2026-05-04 19:25 51.50936 8.82789 20098 ft 323 kts 268°
2026-05-04 19:26 51.50974 8.79188 19981 ft 322 kts 268°
2026-05-04 19:26 51.51008 8.75587 20004 ft 323 kts 268°
2026-05-04 19:26 51.51043 8.71976 20000 ft 323 kts 268°
2026-05-04 19:26 51.51077 8.68408 20001 ft 323 kts 268°
2026-05-04 19:27 51.51112 8.64794 20003 ft 325 kts 268°
2026-05-04 19:27 51.51148 8.61166 20001 ft 325 kts 268°
2026-05-04 19:27 51.51184 8.57496 20000 ft 325 kts 268°
2026-05-04 19:27 51.51218 8.53866 19999 ft 325 kts 268°
2026-05-04 19:28 51.51249 8.50284 20004 ft 325 kts 268°
2026-05-04 19:28 51.51279 8.46650 19999 ft 325 kts 268°
2026-05-04 19:28 51.51308 8.43022 19988 ft 325 kts 268°
2026-05-04 19:28 51.51337 8.39389 19987 ft 325 kts 268°
2026-05-04 19:29 51.51368 8.35765 19997 ft 325 kts 268°
2026-05-04 19:29 51.51395 8.32128 19986 ft 325 kts 268°
2026-05-04 19:29 51.51420 8.28512 19987 ft 324 kts 268°
2026-05-04 19:29 51.51445 8.24904 19987 ft 323 kts 268°
2026-05-04 19:30 51.51465 8.21292 19988 ft 323 kts 268°
2026-05-04 19:30 51.51480 8.17690 19995 ft 324 kts 267°
2026-05-04 19:30 51.51494 8.14069 19987 ft 325 kts 267°
2026-05-04 19:30 51.51506 8.10438 19985 ft 325 kts 266°
2026-05-04 19:31 51.51311 8.06842 19984 ft 322 kts 258°
2026-05-04 19:31 51.50817 8.03336 19727 ft 321 kts 251°
2026-05-04 19:31 51.50208 7.99899 19393 ft 319 kts 251°
2026-05-04 19:31 51.49608 7.96486 19056 ft 317 kts 251°
2026-05-04 19:32 51.49013 7.93086 18720 ft 316 kts 251°
2026-05-04 19:32 51.48421 7.89696 18395 ft 314 kts 251°
2026-05-04 19:32 51.47831 7.86328 18032 ft 313 kts 251°
2026-05-04 19:32 51.47239 7.82980 17686 ft 311 kts 251°
2026-05-04 19:33 51.46645 7.79651 17360 ft 310 kts 251°
2026-05-04 19:33 51.46054 7.76331 17048 ft 309 kts 251°
2026-05-04 19:33 51.45473 7.73066 16741 ft 308 kts 251°
2026-05-04 19:33 51.44886 7.69774 16387 ft 306 kts 251°
2026-05-04 19:34 51.44297 7.66490 16028 ft 307 kts 251°
2026-05-04 19:34 51.43702 7.63199 15652 ft 307 kts 251°
2026-05-04 19:34 51.43111 7.59924 15283 ft 305 kts 251°
2026-05-04 19:34 51.42526 7.56679 14942 ft 300 kts 251°
2026-05-04 19:35 51.41808 7.53604 14655 ft 290 kts 242°
2026-05-04 19:35 51.40815 7.50842 14366 ft 282 kts 234°
2026-05-04 19:35 51.39732 7.48257 14089 ft 277 kts 234°
2026-05-04 19:35 51.38671 7.45707 13806 ft 272 kts 234°
2026-05-04 19:36 51.37633 7.43202 13468 ft 268 kts 234°
2026-05-04 19:36 51.36607 7.40724 13099 ft 266 kts 234°
2026-05-04 19:36 51.35589 7.38270 12730 ft 264 kts 234°
2026-05-04 19:36 51.34578 7.35836 12364 ft 262 kts 234°
2026-05-04 19:37 51.33572 7.33424 12007 ft 259 kts 234°
2026-05-04 19:37 51.32579 7.31034 11648 ft 257 kts 234°
2026-05-04 19:37 51.31619 7.28698 11343 ft 252 kts 234°
2026-05-04 19:37 51.30664 7.26366 11034 ft 248 kts 234°
2026-05-04 19:38 51.29726 7.24073 10749 ft 245 kts 234°
2026-05-04 19:38 51.28801 7.21804 10451 ft 242 kts 234°
2026-05-04 19:38 51.27890 7.19563 10160 ft 239 kts 234°
2026-05-04 19:38 51.26989 7.17340 9873 ft 237 kts 234°
2026-05-04 19:39 51.26093 7.15134 9573 ft 238 kts 234°
2026-05-04 19:39 51.25181 7.12906 9253 ft 240 kts 234°
2026-05-04 19:39 51.24287 7.10664 8932 ft 240 kts 240°
2026-05-04 19:39 51.23915 7.08061 8620 ft 245 kts 268°
2026-05-04 19:40 51.24048 7.05342 8310 ft 246 kts 273°
2026-05-04 19:40 51.24243 7.02621 8007 ft 247 kts 273°
2026-05-04 19:40 51.24443 6.99907 7702 ft 246 kts 273°
2026-05-04 19:40 51.24645 6.97202 7402 ft 245 kts 273°
2026-05-04 19:41 51.24851 6.94500 7105 ft 245 kts 273°
2026-05-04 19:41 51.25055 6.91829 6970 ft 240 kts 274°
2026-05-04 19:41 51.25584 6.89305 6970 ft 246 kts 301°
2026-05-04 19:41 51.26826 6.87403 6977 ft 251 kts 321°
2026-05-04 19:42 51.28262 6.85804 6975 ft 252 kts 323°
2026-05-04 19:42 51.29719 6.84238 6975 ft 252 kts 323°
2026-05-04 19:42 51.31174 6.82683 6975 ft 252 kts 323°
2026-05-04 19:42 51.32634 6.81126 6975 ft 252 kts 323°
2026-05-04 19:43 51.34096 6.79571 6975 ft 252 kts 323°
2026-05-04 19:43 51.35538 6.78039 6974 ft 252 kts 323°
2026-05-04 19:43 51.37002 6.76486 6974 ft 252 kts 323°
2026-05-04 19:43 51.38530 6.75109 6964 ft 254 kts 341°
2026-05-04 19:44 51.40276 6.74945 6972 ft 255 kts 12°
2026-05-04 19:44 51.41848 6.76203 6972 ft 254 kts 44°
2026-05-04 19:44 51.43035 6.78291 6981 ft 254 kts 52°
2026-05-04 19:44 51.44147 6.80498 6968 ft 254 kts 53°
2026-05-04 19:45 51.45257 6.82743 6678 ft 257 kts 53°
2026-05-04 19:45 51.46362 6.84988 6388 ft 256 kts 53°
2026-05-04 19:45 51.47459 6.87226 6109 ft 254 kts 53°
2026-05-04 19:45 51.48541 6.89441 5850 ft 252 kts 53°
2026-05-04 19:46 51.49617 6.91647 5594 ft 250 kts 53°
2026-05-04 19:46 51.50684 6.93847 5344 ft 249 kts 53°
2026-05-04 19:46 51.51529 6.96254 5019 ft 248 kts 77°
2026-05-04 19:46 51.51528 6.98954 4670 ft 241 kts 109°
2026-05-04 19:47 51.50679 7.01175 4314 ft 233 kts 137°
2026-05-04 19:47 51.49481 7.02861 3968 ft 231 kts 143°
2026-05-04 19:47 51.48067 7.03943 3600 ft 225 kts 173°
2026-05-04 19:47 51.46541 7.03641 3259 ft 223 kts 199°
2026-05-04 19:48 51.45113 7.02731 3017 ft 216 kts 203°
2026-05-04 19:48 51.43766 7.01796 3002 ft 207 kts 204°
2026-05-04 19:48 51.42458 7.00874 3025 ft 203 kts 204°
2026-05-04 19:48 51.41160 6.99958 3023 ft 203 kts 204°
2026-05-04 19:49 51.39949 6.98977 3001 ft 186 kts 216°
2026-05-04 19:49 51.39097 6.97490 3015 ft 178 kts 232°
2026-05-04 19:49 51.38352 6.95913 2914 ft 176 kts 232°
2026-05-04 19:49 51.37616 6.94356 2721 ft 175 kts 232°
2026-05-04 19:50 51.36886 6.92813 2501 ft 173 kts 232°
2026-05-04 19:50 51.36167 6.91294 2269 ft 170 kts 232°
2026-05-04 19:50 51.35451 6.89782 2045 ft 170 kts 231°
2026-05-04 19:50 51.34740 6.88281 1813 ft 170 kts 231°
2026-05-04 19:51 51.34053 6.86831 1596 ft 157 kts 231°
2026-05-04 19:51 51.33443 6.85542 1391 ft 136 kts 230°
2026-05-04 19:51 51.32888 6.84376 1214 ft 129 kts 229°
2026-05-04 19:51 51.32347 6.83237 1040 ft 129 kts 231°
2026-05-04 19:52 51.31808 6.82103 851 ft 129 kts 231°
2026-05-04 19:52 51.31275 6.80964 678 ft 127 kts 229°
2026-05-04 19:52 51.30745 6.79854 504 ft 127 kts 231°
2026-05-04 19:52 51.30212 6.78738 355 ft 124 kts 231°
2026-05-04 19:53 51.29691 6.77642 182 ft 123 kts 229°
2026-05-04 19:53 51.29213 6.76644 132 ft 96 kts 233°
2026-05-04 19:53 51.28939 6.76068 126 ft 32 kts 232°
2026-05-04 19:53 51.28815 6.75826 127 ft 32 kts 226°
2026-05-04 19:54 51.28638 6.75679 125 ft 14 kts 182°
2026-05-04 19:54 51.28593 6.75681 124 ft 0 kts 173°
2026-05-04 19:54 51.28586 6.75682 125 ft 4 kts 173°
2026-05-04 19:54 51.28531 6.75706 125 ft 10 kts 159°
2026-05-04 19:55 51.28498 6.75734 125 ft 0 kts 146°
2026-05-04 19:55 51.28497 6.75735 125 ft 1 kts 146°
2026-05-04 19:55 51.28487 6.75746 122 ft 0 kts 144°
2026-05-04 19:56 51.28487 6.75747 122 ft 0 kts 144°
2026-05-04 19:56 51.28484 6.75750 123 ft 1 kts 144°
2026-05-04 19:57 51.28475 6.75760 123 ft 3 kts 144°
2026-05-04 19:57 51.28452 6.75788 124 ft 6 kts 143°
2026-05-04 19:57 51.28395 6.75857 127 ft 14 kts 142°
2026-05-04 19:57 51.28328 6.75938 129 ft 9 kts 142°
2026-05-04 19:58 51.28264 6.75991 127 ft 13 kts 175°
2026-05-04 19:58 51.28225 6.75972 127 ft 0 kts 204°
2026-05-04 19:59 51.28220 6.75968 127 ft 6 kts 204°
2026-05-04 19:59 51.28178 6.75937 128 ft 1 kts 204°
2026-05-04 19:59 51.28169 6.75931 126 ft 3 kts 205°
2026-05-04 19:59 51.28130 6.75902 124 ft 13 kts 205°
2026-05-04 20:00 51.28011 6.75824 129 ft 22 kts 187°
2026-05-04 20:00 51.27879 6.75820 129 ft 16 kts 165°
2026-05-04 20:00 51.27843 6.75987 129 ft 19 kts 90°
2026-05-04 20:00 51.27840 6.76176 128 ft 15 kts 91°
2026-05-04 20:01 51.27860 6.76281 128 ft 5 kts 50°
2026-05-04 20:01 51.27879 6.76315 128 ft 5 kts 49°
2026-05-04 20:01 51.27888 6.76333 128 ft 0 kts 50°